Weather in Kalabaka

Greece     39°42′19″N   21°37′30″E
temp.,
°C
wind,
m/s
gust,
m/s
humid.,
%
clouds,
%
prec.,
mm/h
press.,
hPa
HPBL,
m
18 april, sun
sun1800:00+8sse1294100 0.0 1012102
03:00+8se2297100 0.0 1012140
06:00+8se2297100 0.0 1012141
09:00+9sse229498 0.0 1013222
12:00+14s227540 0.0 1012706
15:00+18s3459100 0.2 1011945
18:00+17sse3461100 0.4 1011926
21:00+11ese2284100 0.9 101212
19 april, mon
mon1900:00+11se11896 0.7 101414
03:00+8nnw22892 0.8 101312
06:00+7nnw22825 0.0 101220
09:00+11nnw11685 0.0 1012228
12:00+15s2348100 0.3 10101445
15:00+15w3550100 1.4 10091689
18:00+14wsw565076 0.1 10081904
21:00+8nw2260100 0.1 101014
20 april, tue
tue2000:00+7nw226817 0.0 101126
03:00+5nnw33754 0.0 101230
06:00+4nnw34810 0.0 101355
09:00+8nnw35690 0.0 1014363
12:00+13nw13524 0.0 10141206
15:00+16sw364292 0.2 10132241
18:00+14w67487 0.1 10131806
21:00+8nnw32611 0.1 101621
21 april, wed
wed2100:00+7nnw34710 0.0 101849
03:00+5nnw33750 0.0 101944
06:00+5nnw33780 0.0 101944
09:00+9nnw34665 0.0 1019244
12:00+14wnw124735 0.0 1018976
15:00+16s234596 0.2 10171628
18:00+16sw334817 0.3 10171291
21:00+11n226114 0.3 101914
22 april, thu
thu2200:00+8n22671 0.0 102018
03:00+7n2272100 0.0 102120
06:00+6n22745 0.0 102119
09:00+11nnw22635 0.0 1022207
12:00+15s2241100 0.0 1021940
15:00+17s333796 0.0 10201029
18:00+17sse3344100 0.0 1019707
21:00+12e2259100 0.0 101911